Location: Clermont
(50.2608°N, 4.3172°E)
Time: 15:33:14
(UTC+00:00)

USA 276 - Pass Details

Date: 13 August 2020
Orbit: 386 x 395 km, 50.0° (Epoch: 07 September)

Event Time Altitude Azimuth Distance (km) Brightness Sun altitude
Rises 20:40:38 0° 279° (W) 2,272 7.0 -13.6°
Reaches altitude 10° 20:42:42 10° 277° (W) 1,415 5.7 -13.8°
Maximum altitude 20:45:51 64° 195° (SSW) 432 2.1 -14.2°
Enters shadow 20:47:06 32° 124° (ESE) 690 2.8 -14.3°
